星链-32253 (STARLINK-32253)

导读

STARLINK-32253是美国SpaceX公司星链(Starlink)卫星互联网项目的一员,于2024年8月28日发射升空,属于低轨通信卫星。它运行在近地轨道,依托星链星座的激光通信与先进推进技术,旨在为全球尤其是偏远地区提供高速低延迟互联网服务,进一步扩展了星链网络的覆盖范围,推动全球互联基础设施建设。

Basic Information
目录编号:
60733
目录名称:
STARLINK-32253
国际标识:
2024-152P
轨道中心:
EARTH
卫星名称:
星链-32253 (STARLINK-32253)
卫星全名:
星链-32253 (STARLINK-32253)
卫星状态:
在轨 (已飞行737 天)
发射日期:
2024-08-28 UTC
国别 :
美国 (US)
星等 :
--
Orbit Information
数据来源 国际轨道数据
星历时间: 2026-09-03T11:36:04+0800
1天前
查看轨道信息
半长轴: 6840.866km
偏心率: 0.0001545
轨道倾角: 53.159°
近地点辐角 73.677°
升交点赤经 162.518°
平近点角 286.440°
近地点: 461.672km
远地点: 463.786km
周期: 93.848分钟
每日圈数: 15.343916
Detailed Information
卫星平台:
Starlink v2.0 mini
运营商:
太空探索技术公司
运营商所在国:
美国
制造商(研发单位):
太空探索技术公司
制造商所在国:
美国
使用方式:
暂无
Satellite Introduction
星链(Starlink)计划是由太空探索技术公司(SpaceX)提出的一个巨型低轨卫星互联网星座项目,计划在2019年至2024年间在太空搭建由约1.2万颗卫星组成的“星链”网络,其中1584颗将部署在地球上空550千米处的近地轨道,并从2020年开始工作。该卫星仍在工作。
2D Orbit Map
3D Orbit Map
Orbit Altitude Analysis Chart
Orbit Inclination Analysis Chart
Orbit Comprehensive Analysis Chart
View Comprehensive Chart
Conjunction Data List
Event ID Objects TCA Miss Dist (km) Collision Risk Probability Collision Risk Index (CRI) Action
CDM_260904-174004-097406-073322
2026-09-04T
17:40:38+0000
1.654 km
极远距离
4.138432E-6 低风险 0.47
CDM_260904-111105-911706-073321
2026-09-04T
11:11:05+0000
2.934 km
极远距离
1.300139E-6 低风险 0.37
CDM_260905-134505-236406-073321
2026-09-05T
13:45:20+0000
2.973 km
极远距离
7.954119E-7 极低风险 0.33